This is the latest recevied weather packets stored in our database for station/object K1BWE-1. If no packets are shown the sender has not sent any weather packets the latest 10 day(s).
| Time | Temp. | Humidity | Pressure | Rain* | Wind** | Luminosity | Snow |
|---|---|---|---|---|---|---|---|
| 1777590382 | 28.89° C | 15% | 1007.7 hPa | 0 mm | - | 219 W/m² | - |
| 1777590080 | 28.89° C | 16% | 1007.7 hPa | 0 mm | - | 210 W/m² | - |
| 1777589775 | 28.89° C | 18% | 1007.5 hPa | 0 mm | - | 260 W/m² | - |
| 1777589474 | 29.44° C | 18% | 1007.7 hPa | 0 mm | - | 240 W/m² | - |
| 1777589170 | 30° C | 15% | 1007.9 hPa | 0 mm | - | 220 W/m² | - |
| 1777588866 | 29.44° C | 17% | 1008 hPa | 0 mm | - | 615 W/m² | - |
| 1777588562 | 28.89° C | 15% | 1008 hPa | 0 mm | - | 267 W/m² | - |
| 1777588257 | 29.44° C | 16% | 1008.3 hPa | 0 mm | - | 541 W/m² | - |
| 1777587952 | 30.56° C | 15% | 1008.2 hPa | 0 mm | - | 412 W/m² | - |
| 1777587644 | 30° C | 17% | 1008.4 hPa | 0 mm | - | 633 W/m² | - |
| 1777587344 | 30° C | 15% | 1008.6 hPa | 0 mm | - | 445 W/m² | - |
| 1777587039 | 30° C | 15% | 1008.6 hPa | 0 mm | - | 565 W/m² | - |
| 1777586735 | 30° C | 17% | 1008.5 hPa | 0 mm | - | 594 W/m² | - |
| 1777586431 | 30° C | 20% | 1008.5 hPa | 0 mm | - | 547 W/m² | - |
| 1777586131 | 30° C | 15% | 1009 hPa | 0 mm | - | 567 W/m² | - |
| 1777585830 | 29.44° C | 15% | 1009.2 hPa | 0 mm | - | 481 W/m² | - |
| 1777585529 | 30° C | 16% | 1009.3 hPa | 0 mm | - | 692 W/m² | - |
| 1777585225 | 30° C | 17% | 1009.2 hPa | 0 mm | - | 784 W/m² | - |
| 1777584920 | 29.44° C | 16% | 1009.1 hPa | 0 mm | - | 809 W/m² | - |
| 1777584618 | 27.78° C | 16% | 1009.5 hPa | 0 mm | - | 497 W/m² | - |
| 1777584314 | 27.22° C | 16% | 1009.6 hPa | 0 mm | - | 280 W/m² | - |
| 1777584010 | 27.78° C | 16% | 1009.6 hPa | 0 mm | - | 234 W/m² | - |
| 1777583705 | 27.78° C | 16% | 1010.2 hPa | 0 mm | - | 226 W/m² | - |
| 1777583404 | 27.78° C | 17% | 1009.9 hPa | 0 mm | - | 275 W/m² | - |
| 1777583104 | 28.33° C | 18% | 1009.7 hPa | 0 mm | - | 264 W/m² | - |
* Rain latest hour (hover to see other rain measurements)
** Current wind speed in m/s (hover to see current wind gust speed)